Regional Weather Roundup
Issued by NWS Charleston, SC

Current Version | Previous Version | Text Only | Print | Product List | Glossary Off
Versions: 1 2 3 4 5 6 7 8 9 10 11 12 13 14 15 16 17 18 19 20 21 22 23 24 25 26 27 28 29 30 31 32 33 34 35 36 37 38 39 40 41 42 43 44 45 46 47 48 49 50
000 ASUS42 KCHS 250012 RWRCHS Regional Weather Roundup National Weather Service Charleston SC 800 PM EDT THU MAY 24 2018 NOTE: "fair" indicates few or no clouds below 12,000 feet with no significant weather and/or obstructions to visibility. Not all stations are quality controlled. Use data with caution, especially dewpoint observations. SCZ027-030-031-034>040-042>050-250100- ...Southeast South Carolina... CITY SKY/WX TMP DP RH WIND PRES REMARKS N Charleston MOCLDY 76 74 93 S6 30.09S 6HR MIN TEMP: 73; 6HR MAX TEMP: 77; 6HR PCP: 0.01; Waterfront Prk N/A 77 73 87 S6 29.94R Mount Pleasant FAIR 75 73 94 CALM 30.10S Johns Island FAIR 77 73 88 CALM 30.10S Pinopolis N/A 75 73 94 CALM 30.03R Moncks Corner FAIR 73 72 94 CALM 30.10R Summerville FAIR 73 72 94 CALM 30.10S Beaufort MCAS LGT RAIN 76 76 100 S3 30.09S FOG 6HR MIN TEMP: 75; 6HR MAX TEMP: 79; 6HR PCP: 0.36; Beaufort Arpt DRIZZLE 73 73 100 CALM 30.09S Hilton Head Is DRIZZLE 75 73 94 CALM 30.10R Walterboro LGT RAIN 72 72 100 S5 30.08F Allendale CLOUDY 73 73 100 CALM 30.10R FOG ...Southern Midlands and Pee Dee... CITY SKY/WX TMP DP RH WIND PRES REMARKS Georgetown FAIR 73 73 100 SE3 30.12R Kingstree MOCLDY 73 72 94 CALM 30.11S Orangeburg MOCLDY 73 71 93 SE3 30.10R 6HR MIN TEMP: 73; 6HR MAX TEMP: 85; 6HR PCP: 0.86; Barnwell LGT RAIN 72 72 100 CALM 30.11R Aiken MOCLDY 70 70 100 SE5 30.14R FOG Manning FAIR 70 68 94 CALM 30.10F Columbia LGT RAIN 75 73 93 S5 30.09S 6HR MIN TEMP: 75; 6HR MAX TEMP: 83; 6HR PCP: TRACE; Sumter MOCLDY 73 72 95 SE3 30.09R 6HR MIN TEMP: 73; 6HR MAX TEMP: 79; 6HR PCP: 0.06; Florence LGT RAIN 72 71 97 NE8 30.13R 6HR MIN TEMP: 72; 6HR MAX TEMP: 86; 6HR PCP: 0.30; Myrtle Beach LGT RAIN 75 72 90 E10 30.13R FOG N Myrtle Beach MOCLDY 76 71 85 E8 30.12R 6HR MIN TEMP: 76; 6HR MAX TEMP: 82; $$ GAZ063-065-086>088-099>101-113>116-118-119-134>141-150-250100- ...Southeast Georgia... CITY SKY/WX TMP DP RH WIND PRES REMARKS Savannah Arpt RAIN 75 74 96 NE3 30.09S FOG 6HR MIN TEMP: 72; 6HR MAX TEMP: 83; 6HR PCP: 1.56; Hunter AAF MOCLDY 75 72 88 E3 30.06S 6HR MIN TEMP: 75; 6HR MAX TEMP: 87; 6HR PCP: 0.13; Fort Stewart RAIN 72 70 93 NE3 30.06R 6HR MIN TEMP: 72; 6HR MAX TEMP: 84; 6HR PCP: 0.15; Statesboro RAIN 70 69 98 CALM 30.09S Sylvania RAIN 72 72 100 S3 30.10S Claxton CLOUDY 73 72 97 NE6 30.08S ...CSRA, Central and far Southeast Georgia... CITY SKY/WX TMP DP RH WIND PRES REMARKS Thomson LGT RAIN 71 69 96 SE6 30.14R Augusta-Bush LGT RAIN 72 70 93 E3 30.09R 6HR MIN TEMP: 72; 6HR MAX TEMP: 88; 6HR PCP: 0.08; Augusta-Daniel LGT RAIN 73 71 93 SE7 30.10S Swainsboro LGT RAIN 73 72 94 SE7 30.09S Vidalia FAIR 73 70 88 E6 30.07S Eastman FAIR 74 66 75 CALM 30.07S Hazlehurst N/A 74 70 88 E5 30.05R Alma FAIR 73 71 93 E6 30.06R 6HR MIN TEMP: 72; 6HR MAX TEMP: 87; 6HR PCP: 1.03; Waycross RAIN 73 70 90 E6 30.06S Jesup TSTM 72 68 87 CALM 30.08R Baxley DRIZZLE 72 70 94 E5 30.05S Brunswick CLOUDY 77 70 78 SE6 30.08R Saint Simons FAIR 78 74 87 SE10 30.07R 6HR MIN TEMP: 78; 6HR MAX TEMP: 84; $$ SCZ027-028-034-036>038-045-046-048>050-GAZ119-141-250100- ...Lake and Supplemental Coastal Observations... STATION/POSITION TIME TEMP WIND PRES WAVE SWELL AIR SEA DIR/SP/G HT/PER HT/PER/DIR (UTC) (F) (DEG/KT/KT) (MB) (FT/S) (FT/S/D) Winyah Bay 2245 77 150/ 6 1019.0 Lake Murray 2320 76 150/ 9/ 14 1018.6R ACE Basin NERRS 2245 75 CALM 1019.0 Fort Pulaski 2348 76 79 140/ 2/ 3 1019.2R Sapelo Island 2300 78 140/ 6 1018.0 $$ ANZ835-935-AMZ111-154-330-350-352-354-370-450-454-472-250100- ...C-MAN and Buoy Observations... STATION/POSITION TIME TEMP WIND PRES WAVE SWELL AIR SEA DIR/SP/G HT/PER HT/PER/DIR (UTC) (F) (DEG/KT/KT) (MB) (FT/S) (FT/S/D) Buoy 41004 2350 76 120/ 6/ 8 1019.1R 2/ 7 2/120/ 7 Buoy 41008 2350 77 77 120/ 10/ 12 1017.8R 2/ 7 2/120/ 7 Folly Beach CMAN 2300 78 150/ 7/ 8 1019.6R Capers Nearshore 2308 78 78 170/ 6/ 8 1019.8R Fripp Nearshore 2308 77 79 170/ 8/ 10 1018.4S STATION/POSITION TIME TEMP WIND PRES WAVE SWELL AIR SEA DIR/SP/G HT/PER HT/PER/DIR (UTC) (F) (DEG/KT/KT) (MB) (FT/S) (FT/S/D) 5E St. Marys GA 2330 78 N/A 2/ 9 Frying Pan Buoy 2350 76 77 70/ 10/ 12 1019.7R 2/ 8 2/140/ 8 Buoy 41025 2350 75 78 20/ 8/ 10 1020.9R 2/ 8 2/130/ 8 Cape Lookout NC 2300 50/ 11/ 12 1020.5R Buoy 41002 2350 79 90/ 4/ 6 1019.0R 3/ 8 3/120/ 8 Buoy 41010 2350 77 80 110/ 10/ 14 1018.9S 3/ 8 3/ 90/ 8 St Augustine FL 0000 78 80 140/ 12/ 13 1018.1R $$

USA.gov is the U.S. government's official web portal to all federal, state and local government web resources and services.